Stations météo

réclame
Mon MeteoGroup
Lossiemouth, Grande-Bretagne (3068): Température de l'air & dewpoint: 19.01.2020 06:00:00 - 25.01.2020 06:00:00 (GMT)Lossiemouth, Grande-Bretagne (3068): Vitesse du vent & gusts: 19.01.2020 06:00:00 - 25.01.2020 06:00:00 (GMT)Lossiemouth, Grande-Bretagne (3068): Direction du vent: 19.01.2020 06:00:00 - 25.01.2020 06:00:00 (GMT)Lossiemouth, Grande-Bretagne (3068): reduced air pressure: 19.01.2020 06:00:00 - 25.01.2020 06:00:00 (GMT)Lossiemouth, Grande-Bretagne (3068): visibility: 19.01.2020 06:00:00 - 25.01.2020 06:00:00 (GMT)Lossiemouth, Grande-Bretagne (3068): Quantités de précipitations: 19.01.2020 06:00:00 - 25.01.2020 06:00:00 (GMT)
Date & Time tt [°C] td [°C] ff [km/h] ff [knt] fx [km/h] fx [knt] dd ppp [hPa] vv [km] rr [mm]
25.01.2020 06:00:00 7,6 2,8 16 9 - - SSW 1007,0 10 0,0
25.01.2020 05:00:00 7,2 3,1 13 7 - - WSW 1007,4 40 0,0
25.01.2020 04:00:00 7,4 4,2 18 10 - - SW 1007,7 10 0,0
25.01.2020 03:00:00 7,5 4,8 13 7 - - SSW 1008,6 10 0,0
25.01.2020 02:00:00 8,9 5,6 18 10 - - SSW 1009,5 10 0,0
25.01.2020 01:00:00 8,4 5,7 15 8 - - S 1010,5 10 0,0
25.01.2020 00:00:00 8,1 5,3 16 9 - - SSW 1011,4 10 0,0
24.01.2020 23:00:00 6,4 4,2 8 4 - - SSW 1012,3 50 0,0
24.01.2020 22:00:00 6,5 4,2 13 7 - - SSW 1012,7 10 0,0
24.01.2020 21:00:00 5,3 3,5 13 7 - - SSW 1013,5 10 0,0
24.01.2020 20:00:00 5,6 3,4 9 5 - - SSW 1014,2 10 0,0
24.01.2020 19:00:00 5,8 3,6 5 3 - - S 1014,7 10 0,0
24.01.2020 18:00:00 6,5 4,3 13 7 - - SW 1015,1 10 0,0
24.01.2020 17:00:00 6,5 3,8 13 7 - - SW 1015,1 10 0,0
24.01.2020 16:00:00 6,9 3,9 21 11 - - WSW 1015,4 10 0,0
24.01.2020 15:00:00 7,3 4,0 11 6 - - SW 1015,8 10 0,0
24.01.2020 14:00:00 7,6 4,1 22 12 - - WSW 1016,1 10 0,0
24.01.2020 13:00:00 7,4 4,8 18 10 - - WSW 1016,5 10 0,0
24.01.2020 12:00:00 6,8 4,1 16 9 - - SW 1017,1 10 0,0
24.01.2020 11:00:00 6,2 4,2 11 6 - - SSW 1017,2 10 0,0
24.01.2020 10:00:00 5,2 3,4 15 8 - - SW 1017,2 10 0,0
24.01.2020 09:00:00 3,5 1,8 11 6 - - SSW 1017,2 10 0,0
24.01.2020 08:00:00 4,6 2,8 11 6 - - SW 1017,2 10 0,0
24.01.2020 07:00:00 5,9 3,8 22 12 - - W 1017,0 10 0,0
24.01.2020 06:00:00 6,3 4,7 9 5 - - W 1016,8 10 0,0
24.01.2020 05:00:00 6,1 4,7 11 6 - - SSW 1016,6 10 0,0
24.01.2020 04:00:00 6,2 4,6 22 12 - - W 1016,4 10 0,0
24.01.2020 03:00:00 6,7 6,0 16 9 - - WNW 1017,3 6 0,6
24.01.2020 02:00:00 7,3 6,7 11 6 - - WNW 1017,7 8 0,0
24.01.2020 01:00:00 8,1 7,0 21 11 - - WSW 1018,0 10 0,2
24.01.2020 00:00:00 7,9 6,9 21 11 - - WSW 1018,0 10 0,0
23.01.2020 23:00:00 8,1 6,7 21 11 - - WSW 1018,3 10 0,0
23.01.2020 22:00:00 8,3 7,1 28 15 - - W 1019,0 3,0 0,0
23.01.2020 21:00:00 9,6 6,1 28 15 - - WSW 1018,5 10 0,0
23.01.2020 20:00:00 9,5 6,0 29 16 - - WSW 1019,0 10 0,0
23.01.2020 19:00:00 9,2 5,9 28 15 - - WSW 1019,5 10 0,0
23.01.2020 18:00:00 9,1 5,8 34 18 - - WSW 1019,8 10 0,0
23.01.2020 17:00:00 9,4 5,6 31 17 - - WSW 1019,8 10 0,0
23.01.2020 16:00:00 9,8 5,7 31 17 48 26 SW 1020,1 10 0,0
23.01.2020 15:00:00 10,5 6,0 31 17 48 26 SW 1021,2 10 0,0
23.01.2020 14:00:00 10,2 5,9 34 18 48 26 WSW 1022,1 10 0,0
23.01.2020 13:00:00 10,1 5,6 35 19 50 27 WSW 1022,7 50 0,0
23.01.2020 12:00:00 9,9 5,6 28 15 63 34 WSW 1023,7 10 0,0
23.01.2020 11:00:00 9,2 5,3 28 15 - - SW 1024,3 10 0,0
23.01.2020 10:00:00 8,4 4,8 26 14 - - SW 1025,1 10 0,0
23.01.2020 09:00:00 7,9 4,5 29 16 - - WSW 1025,3 10 0,0
23.01.2020 08:00:00 7,7 4,6 29 16 - - WSW 1025,6 10 0,0
23.01.2020 07:00:00 7,9 4,6 24 13 - - WSW 1026,3 10 0,0
23.01.2020 06:00:00 8,3 4,8 29 16 - - WSW 1026,0 10 0,0
23.01.2020 05:00:00 8,5 4,8 29 16 - - WSW 1026,4 10 0,0
23.01.2020 04:00:00 9,3 5,7 28 15 - - WSW 1027,3 10 0,0
23.01.2020 03:00:00 8,5 5,5 15 8 - - SW 1028,5 50 0,0
23.01.2020 02:00:00 8,6 5,5 11 6 - - SW 1029,7 10 0,0
23.01.2020 01:00:00 8,7 5,7 18 10 - - WSW 1030,3 10 0,0
23.01.2020 00:00:00 8,9 5,6 15 8 - - SW 1030,2 10 0,0
22.01.2020 23:00:00 9,8 6,5 13 7 - - WSW 1031,2 10 0,0
22.01.2020 22:00:00 9,6 6,8 15 8 - - SW 1031,2 10 0,0
22.01.2020 21:00:00 9,4 7,5 13 7 - - SW 1032,1 10 0,0
22.01.2020 20:00:00 8,1 6,8 15 8 - - WSW 1032,7 10 0,0
22.01.2020 19:00:00 8,9 7,5 13 7 - - WSW 1033,3 10 0,0
22.01.2020 18:00:00 10,0 8,9 15 8 - - WSW 1033,6 10 0,0
22.01.2020 17:00:00 9,8 8,8 15 8 - - WSW 1034,1 10 0,0
22.01.2020 16:00:00 10,7 9,1 18 10 - - W 1034,0 10 0,0
22.01.2020 15:00:00 11,7 8,9 21 11 - - WSW 1033,9 10 0,0
22.01.2020 14:00:00 11,8 9,0 26 14 - - WSW 1033,8 10 0,0
22.01.2020 13:00:00 12,0 9,0 22 12 - - WSW 1034,2 10 0,0
22.01.2020 12:00:00 11,3 8,8 22 12 - - WSW 1034,6 50 0,0
22.01.2020 11:00:00 10,7 8,1 24 13 - - WSW 1034,8 10 0,0
22.01.2020 10:00:00 10,1 7,9 21 11 - - WSW 1034,6 10 0,0
22.01.2020 09:00:00 10,3 8,0 21 11 - - W 1034,6 10 0,0
22.01.2020 08:00:00 10,1 8,1 21 11 - - WSW 1034,4 10 0,0
22.01.2020 07:00:00 10,2 8,3 24 13 - - W 1034,0 10 0,0
22.01.2020 06:00:00 10,7 8,5 24 13 - - W 1034,0 10 0,0
22.01.2020 05:00:00 10,9 8,7 22 12 - - W 1033,8 10 0,0
22.01.2020 04:00:00 10,9 9,0 21 11 - - WSW 1033,8 10 0,0
22.01.2020 03:00:00 10,4 8,8 18 10 - - W 1033,9 10 0,0
22.01.2020 02:00:00 9,9 8,5 18 10 - - WSW 1033,8 10 0,0
22.01.2020 01:00:00 9,4 8,8 15 8 - - WSW 1034,2 10 0,0
22.01.2020 00:00:00 8,9 8,6 13 7 - - WSW 1034,3 8 0,2
21.01.2020 23:00:00 7,4 7,4 8 4 - - WSW 1034,5 7 0,0
21.01.2020 22:00:00 7,3 7,3 8 4 - - WSW 1034,4 10 0,2
21.01.2020 21:00:00 7,4 7,3 5 3 - - SW 1034,4 4,0 0,0
21.01.2020 20:00:00 7,3 7,3 4 2 - - S 1034,8 10 0,0
21.01.2020 19:00:00 7,4 7,3 4 2 - - SSE 1034,9 2,0 0,0
21.01.2020 18:00:00 7,4 7,2 5 3 - - ESE 1034,8 10 0,0
21.01.2020 17:00:00 7,0 6,8 4 2 - - S 1034,5 10 0,0
21.01.2020 16:00:00 6,9 6,6 9 5 - - SSW 1034,5 10 0,0
21.01.2020 15:00:00 7,5 7,5 4 2 - - WNW 1035,0 10 0,2
21.01.2020 14:00:00 7,6 7,4 9 5 - - N 1035,3 0,2 0,0
21.01.2020 13:00:00 8,3 8,1 9 5 - - NW 1035,7 0,5 0,0
21.01.2020 12:00:00 8,7 8,5 2 1 - - W 1035,5 10 0,0
21.01.2020 11:00:00 7,9 7,8 2 1 - - SE 1035,5 9 0,0
21.01.2020 10:00:00 7,1 7,1 8 4 - - SSE 1035,8 8 0,0
21.01.2020 09:00:00 7,3 7,2 5 3 - - SE 1035,9 2,0 0,0
21.01.2020 08:00:00 7,4 7,2 8 4 - - ESE 1035,2 6 0,4
21.01.2020 07:00:00 7,9 7,5 9 5 - - N 1035,2 4,0 0,4
21.01.2020 06:00:00 9,2 8,8 16 9 - - W 1034,9 3,0 0,2
21.01.2020 05:00:00 9,4 8,6 21 11 - - WSW 1034,8 4,0 0,0
21.01.2020 04:00:00 9,9 7,9 22 12 - - WSW 1034,6 10 0,0
21.01.2020 03:00:00 10,3 7,0 28 15 - - WSW 1033,8 10 0,0
21.01.2020 02:00:00 10,2 6,8 26 14 46 25 WSW 1033,5 10 0,0
21.01.2020 01:00:00 9,9 6,6 35 19 50 27 WSW 1033,4 10 0,0
21.01.2020 00:00:00 9,7 6,3 37 20 52 28 WSW 1033,5 10 0,0
20.01.2020 23:00:00 9,7 6,1 31 17 54 29 WSW 1033,8 10 0,0
20.01.2020 22:00:00 10,0 5,7 34 18 54 29 WSW 1033,8 10 0,0
20.01.2020 21:00:00 9,8 5,5 26 14 48 26 SW 1033,9 10 0,0
20.01.2020 20:00:00 9,8 5,1 34 18 59 32 SW 1034,2 10 0,0
20.01.2020 19:00:00 9,2 4,9 48 26 67 36 SW 1033,7 10 0,0
20.01.2020 18:00:00 9,1 4,9 42 23 55 30 SW 1034,1 50 0,0
20.01.2020 17:00:00 9,1 4,8 35 19 48 26 WSW 1034,6 10 0,0
20.01.2020 16:00:00 9,8 5,3 34 18 52 28 WSW 1035,0 10 0,0
20.01.2020 15:00:00 10,2 5,1 39 21 59 32 SW 1034,5 10 0,0
20.01.2020 14:00:00 10,3 5,1 37 20 61 33 WSW 1034,9 10 0,0
20.01.2020 13:00:00 10,2 4,7 41 22 59 32 WSW 1035,2 10 0,0
20.01.2020 12:00:00 10,0 4,3 22 12 - - WSW 1035,8 60 0,0
20.01.2020 11:00:00 9,9 4,5 34 18 52 28 WSW 1035,9 10 0,0
20.01.2020 10:00:00 9,2 4,5 39 21 54 29 SW 1036,0 10 0,0
20.01.2020 09:00:00 8,7 4,3 21 11 - - SW 1036,7 10 0,0
20.01.2020 08:00:00 8,4 4,7 28 15 - - WSW 1036,8 10 0,0
20.01.2020 07:00:00 9,2 4,6 13 7 50 27 SW 1036,9 10 0,0
20.01.2020 06:00:00 9,1 4,5 24 13 52 28 WSW 1036,5 10 0,0
20.01.2020 05:00:00 8,8 4,5 26 14 52 28 SW 1036,3 10 0,0
20.01.2020 04:00:00 8,6 4,4 29 16 48 26 SW 1036,2 40 0,0
20.01.2020 03:00:00 9,0 4,2 28 15 59 32 SW 1036,4 10 0,0
20.01.2020 02:00:00 8,8 4,2 31 17 65 35 WSW 1036,4 10 0,0
20.01.2020 01:00:00 8,4 4,1 42 23 55 30 WSW 1035,9 10 0,0
20.01.2020 00:00:00 8,1 4,1 37 20 57 31 SW 1036,8 10 0,0
19.01.2020 23:00:00 8,3 4,1 39 21 55 30 WSW 1036,6 10 0,0
19.01.2020 22:00:00 8,2 3,9 26 14 54 29 WSW 1036,6 10 0,0
19.01.2020 21:00:00 8,5 3,7 41 22 67 36 WSW 1035,7 10 0,0
19.01.2020 20:00:00 8,4 3,4 41 22 61 33 WSW 1035,8 10 0,0
19.01.2020 19:00:00 8,1 2,7 44 24 61 33 WSW 1035,5 10 0,0
19.01.2020 18:00:00 7,7 2,1 44 24 65 35 WSW 1035,9 10 0,0
19.01.2020 17:00:00 8,0 1,5 37 20 54 29 WSW 1036,2 10 0,0
19.01.2020 16:00:00 7,8 0,3 44 24 61 33 WSW 1036,1 10 0,0
19.01.2020 15:00:00 7,7 -1,4 28 15 48 26 SW 1036,2 10 0,0
19.01.2020 14:00:00 7,7 -1,0 31 17 48 26 SW 1036,0 10 0,0
19.01.2020 13:00:00 7,7 -0,5 34 18 52 28 SW 1036,1 10 0,0
19.01.2020 12:00:00 7,0 0,9 26 14 50 27 SW 1037,0 10 0,0
19.01.2020 11:00:00 7,2 2,0 31 17 - - SW 1036,9 10 0,0
19.01.2020 10:00:00 5,8 2,1 16 9 - - SSW 1037,6 10 0,0
19.01.2020 09:00:00 2,7 0,1 13 7 - - SW 1038,6 10 0,0
19.01.2020 08:00:00 3,6 0,5 13 7 - - SW 1038,0 10 0,0
19.01.2020 07:00:00 3,6 0,1 13 7 - - SW 1037,7 10 0,0
19.01.2020 06:00:00 3,0 0,0 16 9 - - SW 1037,4 10 0,0

tt = Température de l'air
td = dewpoint
ff = Vitesse du vent
fx = gusts
dd = Direction du vent
ppp = reduced air pressure
vv = visibility
rr = Quantités de précipitations

stations d'obs. à proximité